Flag for Canada Weather past 2 weeks in Québec, Quebec, Canada

Now
12 °F

Passing clouds.


Feels Like: -3 °F
Forecast: -3 / 17 °F
Wind: 14 mph from Southwest

Location: Quebec Weather Station

Current Time: Jan 28, 2015 at 2:03:05 PM

Latest Report: Jan 28, 2015 at 1:00 PM


Visibility: 30 mi

Pressure: 30.05 "Hg

Humidity: 52%

Dew point: -2 °F

Location of QuébecLocation

Historic Weather in Québec — Graph

°F

Québec temperature yesterday

Maximum temperature yesterday: 10 °F (at 1:00 PM)
Minimum temperature yesterday: 5 °F (at 3:00 AM)
Average temperature yesterday: 8 °F

Past Weeks' High & Low Weather Summary

 TemperatureHumidityPressure
High34 °F (Jan 19, 10:00 AM)100% (Jan 19, 12:51 AM)30.73 "Hg (Jan 19, 12:51 AM)
Low-22 °F (Jan 14, 6:00 AM)44% (Jan 27, 1:00 PM)29.18 "Hg (Jan 25, 1:00 AM)
Average8 °F73%29.99 "Hg
* Reported Jan 13 1:00 PM — Jan 28 1:00 PM, Québec, Weather by CustomWeather, © 2014

Note: Actual official high and low records may vary slightly from our data, if they occured in-between our weather recording intervals... More about our weather records

Advertising

Québec weather history for previous 24 hours

 ConditionsComfort  
Time TempWeatherWind HumidityBarometerVisibility
1:00 PM
Jan 28
12 °FPassing clouds.14 mph52%30.05 "Hg30 mi
12:00 PM12 °FScattered clouds.12 mph57%30.06 "Hg30 mi
11:00 AM10 °FScattered clouds.9 mph61%30.08 "Hg30 mi
10:00 AM10 °FPartly sunny.7 mph67%30.08 "Hg30 mi
9:00 AM10 °FPartly sunny.5 mph72%30.07 "Hg30 mi
8:00 AM9 °FPartly sunny.2 mph85%30.05 "Hg20 mi
7:00 AM9 °FPassing clouds.6 mph78%30.03 "Hg15 mi
6:00 AM9 °FPassing clouds.2 mph78%30.01 "Hg15 mi
5:00 AM9 °FMostly cloudy.3 mph85%30.00 "Hg10 mi
4:00 AM9 °FSnow flurries. Mostly cloudy.5 mph85%29.99 "Hg5 mi
3:00 AM9 °FSnow flurries. Mostly cloudy.5 mph85%29.99 "Hg5 mi
2:00 AM9 °FSnow flurries. Ice fog.3 mph85%29.98 "Hg1 mi
1:00 AM9 °FSnow flurries. Ice fog.5 mph85%29.97 "Hg1 mi
12:00 AM9 °FSnow flurries. Ice fog.3 mph85%29.98 "Hg1 mi
11:00 PM
Jan 27
10 °FSnow flurries. Ice fog.5 mph72%29.98 "Hg2 mi
10:00 PM10 °FSnow flurries. Overcast.8 mph67%29.99 "Hg8 mi
9:00 PM10 °FSnow flurries. Overcast.13 mph61%30.00 "Hg6 mi
8:00 PM10 °FMostly cloudy.10 mph52%30.02 "Hg15 mi
7:00 PM10 °FMostly cloudy.12 mph52%30.02 "Hg15 mi
6:00 PM10 °FOvercast.16 mph52%30.03 "Hg15 mi
5:00 PM10 °FMostly cloudy.14 mph47%30.03 "Hg15 mi
4:00 PM10 °FMostly cloudy.12 mph44%30.02 "Hg30 mi
3:00 PM10 °FMostly cloudy.16 mph47%30.04 "Hg30 mi
2:00 PM10 °FOvercast.14 mph52%30.07 "Hg30 mi
Weather by CustomWeather, © 2014

See weather overviewHow to use our weather pages